Theta_e
307 307 307 307 306 306 307 315 314 311 314 315 311 315 316 316 317 320 318 320 323 325 325 325 324 325 323 320 320 321 320 321 323 321 319 319 320 321 323 331 327 325 323 320
307 307 307 307 307 307 309 313 306 311 315 312 312 315 316 316 317 319 318 318 323 324 325 326 324 323 314 316 319 320 320 321 323 322 319 318 319 321 321 322 324 325 328 321
307 307 307 307 307 306 310 303 306 302 307 313 315 317 316 317 315 317 319 319 322 322 324 323 323 322 312 313 316 309 317 320 323 327 322 320 320 319 319 321 327 323 322 318
307 307 307 307 307 307 308 304 303 308 309 311 317 317 316 318 318 316 317 320 321 322 322 324 323 321 312 312 310 313 318 321 321 322 320 316 317 318 318 319 321 323 317 316
307 307 307 307 307 308 306 301 303 306 313 312 316 316 318 319 318 317 320 321 319 321 321 320 319 321 315 314 312 315 316 321 319 320 313 312 313 313 316 316 315 314 313 312
307 307 307 307 307 307 304 302 306 312 314 313 315 317 319 319 317 315 316 318 318 319 314 313 313 314 313 313 313 315 316 317 316 317 313 312 313 312 312 312 312 312 311 310
307 307 306 306 307 306 303 304 310 309 312 313 315 317 317 317 317 315 312 314 312 308 304 304 303 306 309 311 312 313 314 314 315 319 309 313 312 305 308 311 310 309 308 304
307 306 306 305 306 306 306 307 310 309 311 313 314 315 316 315 312 309 310 308 306 305 304 307 308 307 309 308 309 311 311 313 314 314 312 311 304 302 303 304 306 305 302 300
306 305 304 305 306 306 305 305 304 308 309 310 312 314 314 307 306 303 302 303 304 304 305 309 312 311 312 308 306 307 310 310 311 311 315 314 305 304 300 300 300 301 300 300
304 304 306 304 307 306 305 303 303 306 303 305 308 307 309 305 305 305 302 301 303 303 309 312 313 311 308 309 307 307 308 312 312 310 310 307 302 300 299 297 302 301 300 299
303 304 304 304 305 305 305 298 301 302 300 297 299 302 301 303 305 306 301 303 303 305 309 309 307 306 307 306 306 305 307 308 308 308 308 307 301 300 298 301 301 300 298 298
302 304 304 305 306 304 305 297 298 298 298 297 295 296 297 299 304 302 301 304 304 305 308 307 304 304 304 303 304 303 306 306 307 305 305 302 302 301 300 299 298 298 298 299
304 304 303 304 303 303 303 297 298 298 297 298 297 297 295 301 301 301 303 303 301 303 304 306 304 304 303 304 304 302 302 302 302 301 300 300 300 299 298 297 298 298 300 300
302 301 301 302 302 301 301 299 300 300 301 301 298 296 296 297 301 302 301 300 300 301 304 305 304 303 301 303 302 302 302 301 300 300 299 299 299 299 298 297 298 300 298 296
299 298 299 299 298 298 298 298 299 299 302 301 299 299 299 299 299 300 300 301 302 303 306 305 303 300 300 301 300 301 300 300 301 300 300 299 298 299 298 299 299 297 295 295
297 296 297 299 298 297 298 299 297 297 297 301 300 298 299 299 300 301 301 302 302 304 305 303 301 300 301 301 298 298 299 299 299 299 299 299 298 298 299 299 297 295 294 294
295 295 296 296 298 299 300 299 297 297 298 303 299 297 297 298 299 299 300 300 300 301 301 300 298 298 301 299 298 297 298 298 298 298 298 297 297 298 299 297 295 293 293 294
293 293 294 295 295 295 296 294 295 297 299 300 300 298 297 297 299 300 299 300 300 300 299 299 299 299 298 299 297 297 297 297 297 297 297 298 298 299 298 296 294 294 295 294
293 294 296 297 297 297 295 294 297 297 299 301 299 299 298 298 298 299 299 298 299 297 299 298 298 299 299 298 297 296 296 296 296 296 296 297 298 299 296 295 295 295 295 294
294 298 300 301 295 292 295 298 301 302 299 299 300 299 299 299 299 299 299 299 299 299 299 299 298 299 298 298 298 298 297 296 297 297 297 298 300 297 296 295 295 295 294 294
298 299 297 294 293 296 298 301 302 300 298 298 299 299 299 299 300 300 300 301 299 300 300 299 300 300 300 299 299 298 298 298 298 299 299 299 299 298 296 295 295 295 294 293
296 295 295 295 296 297 298 298 298 298 297 298 299 300 300 300 301 300 300 299 300 300 299 300 300 301 300 300 300 299 299 298 299 299 299 298 297 296 296 295 295 294 293 292
296 297 296 296 296 296 296 297 298 299 298 299 300 299 299 299 299 299 299 299 300 299 300 300 301 301 300 301 300 300 299 298 298 299 298 298 296 295 295 295 294 294 293 292
297 299 294 297 297 295 297 298 301 300 300 299 299 298 299 298 300 299 300 299 299 300 300 300 301 300 300 300 299 299 299 299 299 299 298 298 297 296 295 294 294 293 293 292
298 296 296 296 297 298 298 298 299 299 299 298 299 298 298 298 298 299 299 299 299 299 300 302 301 300 300 299 299 299 299 298 298 298 298 296 295 295 295 294 293 292 292 290
296 296 296 297 298 299 300 300 300 298 298 298 298 298 298 298 299 299 299 298 298 300 301 301 301 301 300 300 299 298 298 298 294 295 294 294 293 293 293 293 292 292 291 290
295 296 297 297 298 299 299 299 299 298 298 299 297 297 296 298 298 298 299 299 300 302 301 301 300 300 299 299 298 294 295 295 294 293 292 291 291 291 291 292 291 291 290 289
Wind_Speed
53 50 48 45 43 39 34 4 5 37 48 12 12 17 20 18 18 8 4 6 24 19 21 24 23 15 16 14 16 21 14 7 10 17 7 12 13 20 18 7 6 8 7 7
53 51 49 47 44 42 32 3 3 34 36 12 17 15 21 15 21 18 8 10 15 15 18 15 20 16 7 10 16 14 15 9 9 6 10 12 14 20 21 18 4 17 11 3
53 51 49 48 49 47 31 4 5 1 3 7 22 22 24 26 20 19 14 5 5 10 16 17 15 12 4 6 12 4 8 8 13 13 7 5 24 21 20 18 10 16 20 21
51 50 49 49 49 49 29 3 4 7 11 14 24 28 22 26 10 19 24 13 17 17 7 13 13 15 9 7 3 5 10 12 19 20 14 11 13 24 22 23 21 18 17 23
50 49 46 48 49 47 12 5 5 4 17 19 23 26 18 34 22 21 24 23 23 19 9 13 9 16 12 10 11 13 9 4 12 15 8 8 13 13 18 22 20 19 20 21
48 47 47 47 48 44 3 4 5 9 16 19 20 24 29 28 24 15 22 21 12 13 3 6 5 1 7 5 11 17 12 8 9 9 11 9 13 20 19 18 17 18 17 17
45 45 44 45 47 46 6 6 4 4 7 18 22 26 26 23 29 13 7 10 10 9 19 18 14 13 6 8 11 13 13 14 6 5 9 8 3 1 13 24 21 18 17 11
41 42 41 41 43 42 14 13 4 4 5 18 19 20 24 9 8 4 9 3 11 17 9 4 5 2 3 1 4 11 11 7 4 5 12 9 6 7 8 13 15 11 10 11
36 36 36 38 40 43 27 17 5 4 6 9 14 16 15 6 6 4 4 11 21 6 3 3 6 7 9 8 10 12 13 12 7 6 6 8 5 16 8 5 9 13 8 6
32 31 32 21 41 45 33 11 7 4 4 3 6 6 14 8 5 5 5 10 6 2 3 4 3 4 11 11 14 13 13 9 12 9 7 6 13 14 11 7 2 11 8 6
30 31 32 30 35 41 30 10 10 3 4 3 5 2 6 6 7 9 10 7 2 3 3 4 3 4 7 7 13 13 12 11 8 9 11 14 15 15 11 7 8 6 4 6
31 34 34 36 38 34 30 8 18 21 8 4 10 14 12 2 1 10 11 3 8 5 4 3 3 6 6 12 9 16 8 8 8 9 9 3 16 11 9 5 2 3 4 6
35 39 41 41 39 34 26 18 19 18 4 6 5 5 9 7 11 19 5 4 5 5 5 6 3 4 7 8 9 13 11 12 4 7 7 11 15 10 6 4 4 3 3 6
29 36 39 39 32 33 34 17 14 15 6 5 6 4 4 2 17 9 5 10 8 6 5 2 3 4 4 7 2 9 7 12 11 12 6 11 14 12 8 7 4 3 3 4
24 26 38 41 40 39 35 25 11 6 5 5 7 16 16 12 9 16 14 13 9 4 3 2 2 3 3 3 3 7 8 10 11 7 12 11 12 12 6 7 7 4 2 3
24 28 33 42 41 41 25 6 17 28 31 6 5 3 14 16 16 16 13 9 6 3 3 3 3 3 2 4 5 9 11 12 9 10 7 8 7 9 8 7 6 4 2 3
26 26 28 20 15 11 5 6 12 16 17 5 5 4 3 5 11 9 8 7 4 3 2 2 3 4 4 2 6 5 8 10 13 8 6 9 11 9 9 7 6 6 5 7
35 35 33 31 28 24 17 16 11 4 9 5 4 5 6 1 5 4 3 3 3 3 3 2 4 4 4 4 7 7 8 8 10 12 11 11 9 8 8 8 7 6 8 6
19 20 18 15 12 6 6 9 14 18 7 4 3 9 7 4 6 6 3 1 3 2 3 4 4 5 5 7 8 7 9 11 11 10 10 11 10 10 10 10 9 9 9 6
11 8 4 4 4 1 2 3 3 5 5 4 9 7 7 9 7 3 3 2 4 3 5 4 3 8 12 8 7 6 9 10 11 10 14 13 13 12 11 10 9 9 8 8
4 3 3 6 3 1 3 3 3 3 3 4 5 11 12 8 6 6 2 3 3 3 4 5 4 4 8 9 12 10 10 13 13 12 12 11 9 8 9 10 10 11 13 11
7 11 7 3 3 3 5 3 2 2 4 6 10 11 9 3 3 3 2 3 2 3 7 3 3 3 7 8 9 14 13 13 12 11 9 7 6 9 10 10 11 15 16 15
6 4 4 2 3 3 2 4 3 5 5 5 8 7 4 3 3 3 2 4 4 6 4 4 1 7 6 7 7 11 12 11 10 10 10 10 12 15 16 14 18 18 18 17
3 2 4 3 3 2 0 5 8 4 10 13 9 5 3 3 2 3 4 2 4 4 3 4 3 8 9 8 8 10 12 12 10 11 11 11 12 14 17 19 19 16 13 19
3 3 3 3 4 7 6 7 9 10 11 9 7 4 3 2 3 3 4 3 4 5 3 3 2 8 11 10 9 9 9 6 8 8 4 4 6 7 12 16 20 20 19 18
3 3 6 7 8 5 5 9 8 8 9 8 5 3 3 3 4 4 4 4 4 4 3 4 6 9 10 9 8 5 5 3 1 3 4 7 9 9 13 16 17 20 21 22
3 3 5 4 8 7 6 7 7 6 6 3 3 4 3 4 3 5 4 4 2 6 5 5 7 7 6 6 6 4 2 1 3 6 8 10 11 12 11 9 13 15 17 18
Wind_Direction
202 201 202 201 201 205 203 187 156 161 166 161 181 208 196 209 193 186 277 263 234 226 193 200 194 212 188 195 184 194 210 222 183 202 233 240 235 214 207 215 209 224 272 280
197 197 197 198 195 195 189 201 111 173 183 172 189 195 200 202 209 191 187 224 235 220 225 206 216 204 76 160 181 187 182 207 201 257 202 228 230 219 217 217 216 232 228 173
194 194 194 195 194 191 186 114 152 170 221 209 190 181 196 203 223 216 196 217 269 206 218 200 205 174 136 196 204 36 174 194 210 220 213 268 212 223 218 224 223 233 238 251
190 190 192 195 196 189 181 168 178 184 179 194 200 189 181 190 179 212 203 211 221 190 192 212 207 195 141 184 163 203 172 220 223 240 274 262 256 214 220 223 223 239 255 261
189 188 193 194 191 184 173 153 148 205 182 170 191 189 196 198 191 173 201 207 204 222 183 193 187 200 173 175 186 193 199 230 240 234 202 253 251 235 228 229 234 235 252 261
186 189 191 192 191 186 120 185 168 173 167 175 187 196 194 203 192 216 214 203 178 213 158 97 37 158 189 185 193 183 184 169 180 215 210 233 260 230 231 232 233 239 249 271
185 188 191 190 191 189 137 195 128 113 172 179 191 193 198 193 197 166 191 202 140 124 103 72 57 61 77 176 208 187 190 181 176 162 150 222 224 351 240 232 236 235 241 255
184 191 195 194 195 186 179 170 164 136 146 190 189 195 196 167 128 97 164 113 131 141 86 104 110 86 99 61 199 194 191 162 154 181 211 293 219 195 195 210 221 209 237 248
186 191 195 197 198 188 184 186 234 139 123 196 179 179 182 148 137 110 97 127 142 114 115 141 177 179 162 169 170 196 188 194 201 189 215 230 7 161 169 130 241 217 215 221
181 185 184 188 191 174 165 158 192 103 109 57 144 155 176 125 126 99 124 141 159 244 146 149 162 178 163 160 174 182 189 199 209 202 225 252 138 125 146 199 134 130 159 201
180 182 178 183 168 163 163 116 151 113 94 46 41 75 136 145 160 153 152 116 212 180 151 149 166 168 176 179 171 176 176 184 196 215 215 237 170 155 194 106 128 156 214 258
183 184 181 177 176 163 155 84 109 101 82 93 96 66 50 328 326 131 174 79 141 156 133 162 138 183 161 182 169 171 200 204 194 198 216 89 172 168 161 126 186 236 273 292
165 165 164 166 161 156 148 126 131 82 112 72 52 19 3 85 131 145 123 162 150 167 135 131 117 155 185 173 194 171 218 196 217 174 202 168 172 145 156 186 207 240 268 287
138 145 148 151 149 138 135 128 111 102 110 92 63 89 42 87 150 145 134 113 87 127 103 97 144 141 241 185 173 193 179 172 202 207 169 181 186 194 199 182 172 231 229 281
103 110 120 120 118 111 100 91 86 88 120 124 114 68 67 121 153 139 140 138 139 130 114 121 125 104 138 90 206 209 173 188 206 212 200 196 204 210 149 179 207 188 244 291
116 120 118 115 111 111 103 75 66 107 112 110 98 76 78 102 110 129 136 115 101 81 100 98 80 55 124 191 227 218 212 211 241 229 168 193 201 153 183 208 176 179 227 264
123 131 137 142 142 128 71 86 143 116 112 95 95 100 87 71 110 105 99 80 72 92 92 140 137 146 149 239 237 215 219 229 219 224 199 179 186 203 182 178 180 168 223 244
99 98 93 87 89 100 84 54 79 80 86 85 97 101 122 117 124 92 35 100 85 43 95 139 168 121 209 245 240 241 189 217 212 195 181 184 215 200 171 190 195 212 235 232
91 83 90 75 51 53 69 75 66 59 73 105 114 141 134 175 106 117 110 90 105 98 175 180 182 183 213 230 226 203 205 203 199 187 191 195 198 187 198 200 208 221 240 234
65 54 48 59 48 183 299 79 44 30 32 39 125 101 127 143 148 109 122 171 135 168 197 106 242 243 234 226 220 208 187 192 188 197 201 205 197 201 210 209 218 226 237 240
49 51 62 89 37 132 43 62 49 91 87 100 139 128 133 154 143 142 87 157 163 205 165 193 216 241 218 221 211 198 182 181 184 186 199 205 194 217 219 227 224 222 230 231
74 103 105 65 26 52 68 54 80 131 118 132 134 131 121 90 88 108 176 130 227 210 139 190 241 184 184 179 190 183 183 180 180 178 195 207 212 204 219 225 236 233 234 237
91 64 59 3 14 74 109 136 131 127 123 142 133 112 128 114 75 102 136 170 194 130 177 220 163 145 168 164 156 169 174 177 182 197 204 213 220 218 218 229 233 229 235 233
62 73 67 19 87 80 45 104 103 118 132 136 127 113 106 121 133 155 170 174 139 200 225 211 191 166 147 140 137 149 164 177 193 204 212 220 225 230 233 231 233 238 233 224
75 56 70 77 92 70 89 118 137 130 119 118 118 97 105 116 126 212 112 163 207 219 220 142 160 142 143 145 152 155 165 163 194 222 253 282 283 252 246 242 239 242 242 238
59 58 112 124 109 116 130 124 128 144 140 151 116 137 132 150 157 172 198 188 221 177 176 148 149 149 155 154 164 157 81 99 35 318 293 269 256 251 259 264 253 246 243 245
72 99 122 124 128 130 129 146 141 140 155 147 134 133 165 135 196 196 185 211 174 146 142 137 140 149 140 122 127 121 126 281 307 302 294 289 290 286 284 278 282 270 258 254